Stations météo

réclame
Mon MeteoGroup
Cap Cepet, France (7661): Température de l'air & dewpoint: 18.05.2019 03:00:00 - 24.05.2019 03:00:00 (CEST)Cap Cepet, France (7661): Vitesse du vent & gusts: 18.05.2019 03:00:00 - 24.05.2019 03:00:00 (CEST)Cap Cepet, France (7661): Direction du vent: 18.05.2019 03:00:00 - 24.05.2019 03:00:00 (CEST)Cap Cepet, France (7661): reduced air pressure: 18.05.2019 03:00:00 - 24.05.2019 03:00:00 (CEST)Cap Cepet, France (7661): visibility: 18.05.2019 03:00:00 - 24.05.2019 03:00:00 (CEST)Cap Cepet, France (7661): Quantités de précipitations: 18.05.2019 03:00:00 - 24.05.2019 03:00:00 (CEST)
Date & Time tt [°C] td [°C] ff [km/h] ff [knt] fx [km/h] fx [knt] dd ppp [hPa] vv [km] rr [mm]
24.05.2019 03:00:00 14,5 14,2 5 3 7 4 ENE 1015,3 - 0,0
24.05.2019 02:00:00 14,8 14,5 5 3 8 5 WSW 1015,8 - 0,0
24.05.2019 01:00:00 15,1 14,6 3 2 8 4 WSW 1016,0 - 0,0
24.05.2019 00:00:00 15,3 14,5 4 2 7 4 E 1016,3 - 0,0
23.05.2019 23:00:00 15,4 13,4 6 3 16 9 NE 1016,3 - 0,0
23.05.2019 22:00:00 14,3 13,0 13 7 16 9 W 1016,3 - 0,0
23.05.2019 21:00:00 15,5 14,7 9 5 15 8 WSW 1016,1 - 0,0
23.05.2019 20:00:00 16,6 14,6 11 6 19 10 WSW 1015,9 - 0,0
23.05.2019 19:00:00 18,0 14,3 12 7 21 11 WSW 1015,7 - 0,0
23.05.2019 18:00:00 18,9 14,4 15 8 22 12 SW 1016,1 - 0,0
23.05.2019 17:00:00 19,9 14,7 13 7 26 14 SW 1016,3 - 0,0
23.05.2019 16:00:00 20,0 14,6 16 8 26 14 SW 1016,7 - 0,0
23.05.2019 15:00:00 19,8 14,8 17 9 28 15 SW 1017,0 - 0,0
23.05.2019 14:00:00 19,9 14,5 16 9 29 15 SW 1017,1 - 0,0
23.05.2019 13:00:00 20,1 14,9 18 10 29 16 SSW 1017,4 - 0,0
23.05.2019 12:00:00 19,5 14,7 16 9 31 17 SSW 1017,7 - 0,0
23.05.2019 11:00:00 19,3 13,7 19 10 30 16 E 1017,7 20 0,0
23.05.2019 10:00:00 19,3 14,1 14 7 27 15 E 1017,5 - 0,0
23.05.2019 09:00:00 17,3 13,0 21 11 28 15 E 1017,3 - 0,0
23.05.2019 08:00:00 15,2 12,5 21 12 29 16 E 1016,9 20 0,2
23.05.2019 07:00:00 12,7 11,9 22 12 31 17 E 1016,6 - 0,0
23.05.2019 06:00:00 12,5 12,0 24 13 34 19 E 1016,4 - 0,0
23.05.2019 05:00:00 12,6 12,1 23 12 31 17 E 1016,4 - 0,0
23.05.2019 04:00:00 12,9 12,0 21 12 28 15 E 1016,5 - 0,0
23.05.2019 03:00:00 12,9 11,6 18 10 22 12 E 1016,5 - 0,0
23.05.2019 02:00:00 13,9 12,5 18 10 23 12 E 1016,5 - 0,0
23.05.2019 01:00:00 14,2 12,4 12 7 17 9 E 1016,6 - 0,0
23.05.2019 00:00:00 15,0 13,0 8 5 15 8 E 1016,6 - 0,0
22.05.2019 23:00:00 15,6 12,9 9 5 23 12 NNW 1016,5 - 0,0
22.05.2019 22:00:00 15,7 12,8 16 9 27 15 NW 1016,1 - 0,0
22.05.2019 21:00:00 15,8 13,3 20 11 27 14 WSW 1016,0 - 0,0
22.05.2019 20:00:00 16,5 13,8 18 10 22 12 WSW 1015,7 25 0,0
22.05.2019 19:00:00 17,3 13,0 13 7 21 12 WSW 1015,8 - 0,0
22.05.2019 18:00:00 18,0 12,7 20 11 30 16 WSW 1016,0 - 0,0
22.05.2019 17:00:00 19,2 11,5 22 12 30 16 WSW 1016,0 - 0,0
22.05.2019 16:00:00 19,5 12,5 21 11 29 16 WSW 1016,3 - 0,0
22.05.2019 15:00:00 19,8 13,5 18 10 26 14 WSW 1016,3 - 0,0
22.05.2019 14:00:00 19,9 12,2 19 10 27 15 WSW 1016,6 - 0,0
22.05.2019 13:00:00 19,2 12,2 18 10 26 14 SW 1016,6 - 0,0
22.05.2019 12:00:00 18,8 11,8 11 6 22 12 SW 1016,3 - 0,0
22.05.2019 11:00:00 18,6 12,1 9 5 16 9 SW 1015,9 - 0,0
22.05.2019 10:00:00 18,3 11,8 2 1 7 4 ENE 1015,8 - 0,0
22.05.2019 09:00:00 15,6 11,0 6 4 11 6 NNW 1015,7 - 0,0
22.05.2019 08:00:00 13,9 10,5 8 5 12 6 N 1015,3 - 0,0
22.05.2019 07:00:00 13,1 11,2 6 4 22 12 ENE 1014,9 - 0,0
22.05.2019 06:00:00 12,2 10,6 14 8 21 11 E 1014,5 - 0,0
22.05.2019 05:00:00 12,9 10,8 11 6 19 10 E 1014,0 - 0,0
22.05.2019 04:00:00 13,1 10,8 15 8 25 13 E 1013,9 - 0,0
22.05.2019 03:00:00 13,1 11,0 19 10 24 13 E 1013,6 - 0,0
22.05.2019 02:00:00 13,8 11,1 22 12 26 14 E 1013,6 - 0,0
22.05.2019 01:00:00 14,2 12,1 20 11 24 13 E 1013,8 - 0,0
22.05.2019 00:00:00 14,6 12,8 21 11 27 15 E 1013,8 - 0,0
21.05.2019 23:00:00 15,0 12,5 19 10 26 14 E 1013,7 - 0,0
21.05.2019 22:00:00 16,5 11,8 7 4 53 29 NNE 1013,1 - 0,0
21.05.2019 21:00:00 17,4 11,7 37 20 64 35 NW 1011,9 - 0,0
21.05.2019 20:00:00 18,7 11,5 43 23 73 39 NW 1011,2 - 0,0
21.05.2019 19:00:00 19,9 11,1 51 28 79 43 NW 1010,3 - 0,0
21.05.2019 18:00:00 20,9 10,4 51 27 79 43 NW 1010,4 - 0,0
21.05.2019 17:00:00 21,5 10,0 54 29 86 46 NW 1010,2 - 0,0
21.05.2019 16:00:00 21,3 9,8 56 30 80 43 NW 1010,0 - 0,0
21.05.2019 15:00:00 21,7 9,9 46 25 72 39 WNW 1010,2 - 0,0
21.05.2019 14:00:00 21,0 10,2 51 28 74 40 NW 1010,3 - 0,0
21.05.2019 13:00:00 19,6 11,4 52 28 74 40 NW 1010,4 - 0,0
21.05.2019 12:00:00 18,5 11,1 51 28 70 38 NW 1010,4 - 0,0
21.05.2019 11:00:00 18,0 10,8 42 23 61 33 NW 1010,5 - 0,0
21.05.2019 10:00:00 16,6 10,7 43 23 62 34 NW 1010,7 - 0,0
21.05.2019 09:00:00 15,6 10,6 40 21 54 29 NW 1010,2 - 0,0
21.05.2019 08:00:00 14,8 10,4 32 17 52 28 NW 1010,1 20 0,0
21.05.2019 07:00:00 14,2 10,0 33 18 51 27 NW 1009,8 - 0,0
21.05.2019 06:00:00 14,2 9,6 33 18 50 27 NW 1009,4 - 0,0
21.05.2019 05:00:00 14,5 9,7 33 18 48 26 NW 1009,2 15 0,0
21.05.2019 04:00:00 14,8 9,6 32 17 43 23 NW 1009,5 - 0,0
21.05.2019 03:00:00 15,4 9,1 35 19 49 26 NW 1009,7 - 0,0
21.05.2019 02:00:00 15,8 8,8 34 19 49 26 NW 1009,5 - 0,0
21.05.2019 01:00:00 16,3 8,5 33 18 45 24 NW 1009,9 - 0,0
21.05.2019 00:00:00 17,0 7,6 31 17 54 29 NW 1009,7 - 0,0
20.05.2019 23:00:00 17,6 8,2 43 23 55 30 NW 1009,0 - 0,0
20.05.2019 22:00:00 17,3 10,2 41 22 64 35 NW 1008,7 - 0,0
20.05.2019 21:00:00 17,0 11,0 45 25 74 40 NW 1008,1 - 0,0
20.05.2019 20:00:00 18,3 9,9 47 26 71 38 NW 1008,0 15 0,0
20.05.2019 19:00:00 18,4 10,2 53 29 77 41 NW 1007,2 - 0,0
20.05.2019 18:00:00 19,2 10,7 57 31 88 48 NW 1006,9 - 0,0
20.05.2019 17:00:00 19,1 10,9 56 31 83 45 NW 1006,7 - 0,0
20.05.2019 16:00:00 18,9 11,2 52 28 75 41 NW 1006,5 - 0,0
20.05.2019 15:00:00 17,5 11,1 46 25 71 38 NW 1007,1 - 0,0
20.05.2019 14:00:00 17,8 11,1 48 26 67 36 NW 1007,1 20 0,0
20.05.2019 13:00:00 17,8 11,4 42 23 66 35 NW 1006,8 - 0,0
20.05.2019 12:00:00 18,7 11,0 36 19 61 33 NW 1006,5 - 0,0
20.05.2019 11:00:00 18,0 11,1 39 21 53 29 NW 1006,3 20 0,0
20.05.2019 10:00:00 17,1 10,7 33 18 48 26 NW 1006,4 - 0,0
20.05.2019 09:00:00 15,4 10,8 35 19 47 25 NW 1006,1 - 0,0
20.05.2019 08:00:00 14,0 10,8 22 12 33 18 NW 1006,3 20 0,0
20.05.2019 07:00:00 12,6 10,8 19 10 29 16 NNW 1005,8 - 0,0
20.05.2019 06:00:00 12,5 10,9 22 12 32 17 NNW 1005,5 - 0,0
20.05.2019 05:00:00 12,2 10,8 17 9 31 17 NNW 1005,6 - 0,0
20.05.2019 04:00:00 12,6 11,0 25 14 33 18 NW 1005,6 - 0,0
20.05.2019 03:00:00 12,8 11,0 21 11 39 21 NNW 1005,8 - 0,0
20.05.2019 02:00:00 12,9 11,3 28 15 37 20 NW 1005,9 - 0,0
20.05.2019 01:00:00 12,7 11,3 24 13 36 20 NW 1006,5 - 0,0
20.05.2019 00:00:00 12,8 10,7 30 16 45 25 NW 1006,6 - 0,0
19.05.2019 23:00:00 12,6 10,8 37 20 51 27 NW 1006,8 - 0,0
19.05.2019 22:00:00 12,7 11,4 36 19 52 28 NW 1006,7 - 0,0
19.05.2019 21:00:00 12,9 10,4 41 22 58 31 NW 1006,3 - 0,0
19.05.2019 20:00:00 14,0 9,4 37 20 56 30 NW 1006,0 - 0,0
19.05.2019 19:00:00 15,8 9,2 40 22 59 32 NW 1004,7 - 0,0
19.05.2019 18:00:00 16,5 9,4 34 18 60 32 NW 1005,0 - 0,0
19.05.2019 17:00:00 16,2 9,4 38 21 64 35 NW 1004,9 - 0,0
19.05.2019 16:00:00 16,9 9,6 44 24 68 37 NW 1004,9 - 0,0
19.05.2019 15:00:00 17,5 9,6 44 24 64 34 NW 1004,6 - 0,0
19.05.2019 14:00:00 18,1 10,2 39 21 59 32 NW 1004,3 - 0,0
19.05.2019 13:00:00 18,1 10,0 36 19 53 28 NW 1004,4 - 0,0
19.05.2019 12:00:00 17,8 10,2 33 18 50 27 NW 1004,8 - 0,0
19.05.2019 11:00:00 16,6 10,2 28 15 39 21 NW 1004,9 25 0,0
19.05.2019 10:00:00 15,0 10,2 29 16 39 21 NW 1005,0 - 0,0
19.05.2019 09:00:00 14,1 10,3 29 16 45 24 NW 1004,8 - 0,0
19.05.2019 08:00:00 13,2 10,6 23 12 36 19 NW 1004,9 20 0,0
19.05.2019 07:00:00 12,7 9,7 16 8 21 11 NW 1005,1 - 0,0
19.05.2019 06:00:00 12,6 9,8 15 8 24 13 NW 1005,2 - 0,0
19.05.2019 05:00:00 12,8 9,8 16 9 20 11 NW 1005,2 20 0,0
19.05.2019 04:00:00 12,6 10,0 9 5 12 7 NNW 1005,5 - 0,0
19.05.2019 03:00:00 12,9 10,6 8 4 11 6 N 1005,9 - 0,0
19.05.2019 02:00:00 13,4 11,5 11 6 14 8 NW 1006,5 - 0,0
19.05.2019 01:00:00 13,5 11,2 12 7 30 16 NW 1007,0 - 0,0
19.05.2019 00:00:00 13,5 11,0 21 12 39 21 NW 1007,3 - 0,0
18.05.2019 23:00:00 13,8 11,0 29 15 51 27 NW 1007,6 - 0,0
18.05.2019 22:00:00 14,3 10,7 36 19 50 27 NW 1007,6 - 0,0
18.05.2019 21:00:00 14,1 10,5 22 12 42 23 NW 1007,1 - 0,0
18.05.2019 20:00:00 15,1 10,3 23 12 42 23 NW 1006,6 20 0,0
18.05.2019 19:00:00 15,9 10,0 27 15 39 21 NW 1006,3 - 0,0
18.05.2019 18:00:00 17,7 9,6 25 14 36 19 NW 1006,1 - 0,0
18.05.2019 17:00:00 19,3 10,0 25 14 37 20 NW 1005,8 20 0,0
18.05.2019 16:00:00 16,3 10,4 22 12 33 18 NW 1005,9 - 0,0
18.05.2019 15:00:00 17,4 9,6 18 10 32 17 WNW 1005,7 - 0,0
18.05.2019 14:00:00 20,6 9,5 21 11 37 20 NW 1005,2 20 0,0
18.05.2019 13:00:00 18,1 10,5 22 12 34 19 NW 1005,6 - 0,0
18.05.2019 12:00:00 17,1 10,9 19 11 31 17 NW 1005,8 - 0,0
18.05.2019 11:00:00 16,2 10,5 19 10 30 16 NW 1005,7 20 0,0
18.05.2019 10:00:00 15,0 9,4 9 5 14 8 NW 1005,7 - 0,0
18.05.2019 09:00:00 13,8 9,4 8 4 14 8 WNW 1005,6 - 0,0
18.05.2019 08:00:00 12,7 9,0 11 6 14 8 NW 1005,2 - 0,0
18.05.2019 07:00:00 12,1 9,7 6 3 8 4 N 1005,1 - 0,0
18.05.2019 06:00:00 11,9 8,7 3 2 13 7 NNE 1005,1 - 0,0
18.05.2019 05:00:00 12,2 9,8 8 5 11 6 SSW 1005,2 - 0,2
18.05.2019 04:00:00 12,5 9,3 5 3 19 10 NNE 1005,1 15 0,2
18.05.2019 03:00:00 12,3 8,8 14 8 19 10 NW 1005,1 - 0,2

tt = Température de l'air
td = dewpoint
ff = Vitesse du vent
fx = gusts
dd = Direction du vent
ppp = reduced air pressure
vv = visibility
rr = Quantités de précipitations

stations d'obs. à proximité